EW9092 Weather Reports


Display with metric or nautical units.
time (UTC)temp
F
wind
direction
speed
MPH
gust
MPH
rain 1hr
in
rain 24hr
in
rain mn
in
humidity
%
barometer
mb
20260506011547 73 278 8.0 15.0 0.00 0.46 0.23 27 1010.8
20260506011047 73 268 8.0 16.0 0.00 0.46 0.23 26 1010.8
20260506010548 74 248 8.0 16.0 0.00 0.46 0.23 27 1010.7
20260506010047 74 234 7.0 14.0 0.00 0.47 0.23 27 1010.6
20260506005549 74 262 7.0 16.0 0.00 0.47 0.23 26 1010.7
20260506005043 74 295 7.0 16.0 0.00 0.48 0.23 27 1010.6
20260506004546 74 271 7.0 14.0 0.00 0.48 0.23 27 1010.6
20260506004046 74 274 7.0 14.0 0.00 0.49 0.23 27 1010.5
20260506003546 74 212 8.0 16.0 0.00 0.49 0.23 27 1010.5
20260506003047 74 269 9.0 16.0 0.00 0.50 0.23 28 1010.5
20260506002546 75 232 8.0 17.0 0.00 0.50 0.23 27 1010.5
20260506002046 75 244 7.0 17.0 0.00 0.50 0.23 28 1010.3
20260506001815 74 269 7.0 12.0 0.00 0.50 0.23 29 1010.2
20260506001039 74 226 6.0 14.0 0.00 0.50 0.23 28 1010.3
20260506000544 74 281 7.0 14.0 0.00 0.50 0.23 29 1010.3
20260506000047 74 286 7.0 13.0 0.00 0.50 0.23 28 1010.3
20260505235544 74 229 6.0 13.0 0.00 0.50 0.23 28 1010.2
20260505235042 74 229 8.0 16.0 0.00 0.50 0.23 29 1010.1
20260505234537 73 240 8.0 16.0 0.00 0.50 0.23 28 1010.2
20260505234036 74 191 7.0 18.0 0.00 0.50 0.23 27 1010.2
20260505233535 74 243 6.0 18.0 0.00 0.50 0.23 27 1010.0
20260505233034 75 255 6.0 15.0 0.00 0.50 0.23 26 1010.1
20260505232534 75 231 7.0 16.0 0.00 0.50 0.23 27 1010.1
20260505232257 75 236 8.0 16.0 0.00 0.50 0.23 27 1010.1
20260505231533 75 249 8.0 15.0 0.00 0.50 0.23 26 1010.2
20260505231020 75 264 7.0 16.0 0.00 0.50 0.23 26 1010.1
20260505230516 75 252 8.0 21.0 0.00 0.50 0.23 26 1010.2
20260505230010 75 271 10.0 21.0 0.00 0.50 0.23 27 1010.2
20260505225721 74 280 9.0 19.0 0.00 0.50 0.23 27 1010.2
20260505224954 75 260 8.0 16.0 0.00 0.50 0.23 27 1010.5
20260505224554 75 269 7.0 15.0 0.00 0.50 0.23 27 1010.3
20260505223941 75 269 10.0 23.0 0.00 0.50 0.23 26 1010.5
20260505222954 75 249 10.0 23.0 0.00 0.50 0.23 26 1010.6
20260505222453 75 252 9.0 19.0 0.00 0.50 0.23 27 1010.5
20260505221953 75 257 9.0 20.0 0.00 0.50 0.23 27 1010.5
20260505221453 75 248 9.0 20.0 0.00 0.50 0.23 28 1010.5
20260505220953 75 359 9.0 18.0 0.00 0.50 0.23 28 1010.6
20260505220453 75 264 8.0 18.0 0.00 0.50 0.23 28 1010.6
20260505215953 75 271 8.0 16.0 0.00 0.50 0.23 29 1010.6
20260505215453 76 244 8.0 19.0 0.00 0.50 0.23 29 1010.7
20260505214953 76 229 8.0 19.0 0.00 0.50 0.23 29 1010.8
20260505214457 75 264 9.0 19.0 0.00 0.50 0.23 31 1010.7
20260505213947 75 221 11.0 19.0 0.00 0.50 0.23 30 1010.9
20260505213441 75 229 10.0 19.0 0.00 0.50 0.23 32 1010.9
20260505213200 75 247 10.0 19.0 0.00 0.50 0.23 31 1010.9
20260505212425 74 252 11.0 19.0 0.00 0.50 0.23 33 1011.0
20260505211918 75 288 10.0 20.0 0.00 0.50 0.23 34 1011.0
20260505211412 74 227 10.0 19.0 0.00 0.50 0.23 35 1011.1
20260505210902 73 230 11.0 19.0 0.00 0.50 0.23 36 1011.0
20260505210355 73 264 11.0 21.0 0.00 0.50 0.23 35 1011.1
20260505210118 73 215 10.0 21.0 0.00 0.50 0.23 37 1011.2
20260505205349 74 214 10.0 17.0 0.00 0.50 0.23 37 1011.2
20260505204849 74 259 7.0 17.0 0.00 0.50 0.23 37 1011.2
20260505204349 73 243 5.0 11.0 0.00 0.50 0.23 39 1011.2
20260505204109 73 254 6.0 13.0 0.00 0.50 0.23 38 1011.2
20260505203350 73 216 6.0 13.0 0.00 0.50 0.23 38 1011.3
20260505202849 73 230 3.0 11.0 0.00 0.50 0.23 39 1011.3
20260505202349 72 220 1.0 5.0 0.00 0.50 0.23 44 1011.4
20260505201854 72 245 2.0 5.0 0.00 0.50 0.23 47 1011.4
20260505201350 72 243 2.0 6.0 0.00 0.50 0.23 47 1011.5
20260505200851 73 281 3.0 10.0 0.00 0.50 0.23 46 1011.4
20260505200349 72 210 3.0 10.0 0.00 0.50 0.23 48 1011.6
20260505195850 72 268 3.0 9.0 0.00 0.50 0.23 48 1011.6
20260505195350 72 273 4.0 9.0 0.00 0.50 0.23 48 1011.8
20260505195108 72 239 3.0 9.0 0.00 0.50 0.23 47 1011.8
20260505194338 72 309 2.0 6.0 0.00 0.50 0.23 47 1011.9
20260505193831 72 358 3.0 9.0 0.00 0.50 0.23 48 1011.8
20260505193333 73 356 3.0 9.0 0.00 0.50 0.23 46 1011.8
20260505192831 73 291 2.0 6.0 0.00 0.50 0.23 47 1011.9
20260505192553 73 278 3.0 9.0 0.00 0.50 0.23 48 1011.9
20260505192057 72 326 2.0 9.0 0.00 0.50 0.23 49 1011.9
20260505191329 73 221 1.0 4.0 0.00 0.50 0.23 49 1012.0
20260505191049 71 350 2.0 7.0 0.00 0.50 0.23 50 1012.2
20260505190325 71 287 3.0 8.0 0.00 0.50 0.23 52 1012.3
20260505185826 70 311 4.0 8.0 0.00 0.50 0.23 53 1012.4
20260505185326 70 300 3.0 7.0 0.00 0.50 0.23 53 1012.5
20260505185047 70 286 3.0 11.0 0.00 0.50 0.23 52 1012.6
20260505184324 71 219 2.0 11.0 0.00 0.50 0.23 51 1012.5
20260505183824 71 267 0.0 4.0 0.00 0.50 0.23 53 1012.6
20260505183323 71 268 2.0 6.0 0.00 0.50 0.23 55 1012.6
20260505182821 69 346 3.0 6.0 0.00 0.50 0.23 56 1012.7
20260505182319 69 329 2.0 6.0 0.00 0.50 0.23 56 1012.7
20260505181814 68 45 2.0 6.0 0.00 0.50 0.23 58 1012.8
20260505181309 68 1 1.0 5.0 0.00 0.50 0.23 59 1012.9
20260505180809 68 306 1.0 5.0 0.00 0.50 0.23 61 1013.1
20260505180308 67 332 2.0 7.0 0.00 0.50 0.23 60 1013.1
20260505175807 68 6 2.0 7.0 0.00 0.50 0.23 59 1012.9
20260505175307 68 29 1.0 3.0 0.00 0.50 0.23 58 1013.2
20260505174807 68 24 1.0 4.0 0.00 0.50 0.23 58 1013.2
20260505174309 68 269 1.0 5.0 0.00 0.50 0.23 58 1013.2
20260505174032 69 232 1.0 5.0 0.00 0.50 0.23 56 1013.2
20260505173305 69 60 1.0 4.0 0.00 0.50 0.23 57 1013.2
20260505173032 68 82 1.0 3.0 0.00 0.50 0.23 58 1013.3
20260505172521 68 118 1.0 3.0 0.00 0.50 0.23 58 1013.4
20260505171805 68 142 0.0 1.0 0.00 0.50 0.23 59 1013.3
20260505171302 68 126 0.0 1.0 0.00 0.50 0.23 60 1013.3
20260505170802 68 87 0.0 1.0 0.00 0.50 0.23 59 1013.3
20260505170300 67 250 0.0 0.0 0.00 0.50 0.23 62 1013.2
20260505165754 67 250 0.0 0.0 0.00 0.50 0.23 62 1013.2
20260505165515 66 250 0.0 2.0 0.00 0.50 0.23 65 1013.3
20260505165244 65 250 0.0 2.0 0.00 0.50 0.23 66 1013.2
20260505164250 65 250 0.0 2.0 0.00 0.50 0.23 66 1013.2
20260505163747 64 279 0.0 3.0 0.00 0.50 0.23 69 1013.3
20260505163250 64 279 1.0 3.0 0.00 0.50 0.23 71 1013.3
20260505163010 64 278 1.0 3.0 0.00 0.50 0.23 70 1013.3
20260505162249 64 250 1.0 3.0 0.00 0.50 0.23 70 1013.4
20260505161752 64 254 0.0 4.0 0.00 0.50 0.23 70 1013.3
20260505161740 63 260 1.0 4.0 0.00 0.50 0.23 71 1013.3
20260505160749 63 262 1.0 2.0 0.00 0.50 0.23 70 1013.3
20260505160246 63 250 1.0 3.0 0.00 0.50 0.23 70 1013.2
20260505153236 62 229 0.0 0.0 0.00 0.50 0.23 80 1013.1
20260505152733 62 134 0.0 0.0 0.00 0.50 0.23 80 1013.1
20260505152233 61 216 0.0 0.0 0.00 0.50 0.23 78 1013.1
20260505151733 61 216 0.0 0.0 0.00 0.50 0.23 81 1013.1
20260505151231 61 141 0.0 0.0 0.00 0.50 0.23 82 1013.1
20260505150730 61 142 0.0 0.0 0.00 0.50 0.23 83 1013.1
20260505150232 61 142 0.0 0.0 0.00 0.50 0.23 83 1012.9
20260505140225 59 88 1.0 4.0 0.00 0.50 0.23 88 1012.6
20260505130225 58 338 0.0 0.0 0.00 0.50 0.23 91 1012.2
20260505124724 58 256 0.0 0.0 0.00 0.50 0.23 91 1012.1
20260505124228 58 256 0.0 0.0 0.00 0.50 0.23 91 1012.1
20260505123510 58 256 0.0 0.0 0.01 0.50 0.23 90 1012.1
20260505123011 58 140 0.0 2.0 0.01 0.50 0.23 90 1011.9
20260505122511 58 140 0.0 2.0 0.01 0.50 0.23 90 1011.5
20260505122010 58 145 0.0 1.0 0.01 0.50 0.23 91 1011.9
20260505121738 58 349 0.0 0.0 0.01 0.50 0.23 90 1011.9
20260505121010 58 349 0.0 0.0 0.02 0.50 0.23 90 1011.6
20260505120508 58 349 0.0 0.0 0.02 0.50 0.23 90 1011.5
20260505120449 58 349 0.0 0.0 0.02 0.50 0.23 90 1011.5
20260505115504 58 349 0.0 0.0 0.03 0.50 0.23 90 1011.4
20260505115007 58 349 0.0 0.0 0.03 0.50 0.23 90 1011.6
20260505114502 58 349 0.0 0.0 0.03 0.50 0.23 90 1011.5
20260505114001 58 347 0.0 0.0 0.03 0.49 0.22 90 1011.5
20260505113502 58 334 0.0 0.0 0.03 0.49 0.22 90 1011.4
20260505113002 58 300 0.0 0.0 0.03 0.49 0.22 90 1011.9
20260505112729 58 300 0.0 0.0 0.04 0.49 0.22 90 1012.2
20260505111959 58 300 0.0 0.0 0.04 0.49 0.22 90 1012.0
20260505111502 58 300 0.0 0.0 0.05 0.49 0.22 90 1011.8
20260505110952 58 300 0.0 0.0 0.04 0.48 0.21 89 1011.9
20260505110446 58 300 0.0 0.0 0.04 0.48 0.21 89 1012.1
20260505102054 58 345 1.0 3.0 0.04 0.45 0.18 89 1012.8
20260505101334 58 335 0.0 2.0 0.03 0.44 0.17 88 1012.8
20260505100823 58 257 0.0 0.0 0.04 0.44 0.17 87 1012.8
20260505100318 58 257 0.0 0.0 0.04 0.44 0.17 86 1012.9
20260505100041 58 245 0.0 2.0 0.05 0.44 0.17 87 1013.1
20260505094756 58 147 1.0 3.0 0.06 0.44 0.17 88 1012.9
20260505094250 58 140 1.0 4.0 0.06 0.44 0.17 87 1013.1
20260505093739 58 77 1.0 4.0 0.07 0.44 0.17 88 1013.2
20260505093233 58 59 1.0 4.0 0.06 0.43 0.16 88 1013.3
20260505092728 58 128 1.0 5.0 0.06 0.42 0.15 88 1013.8
20260505092218 58 126 2.0 5.0 0.06 0.42 0.15 88 1013.6
20260505091710 58 97 2.0 5.0 0.05 0.41 0.14 88 1013.6
20260505091206 58 105 2.0 5.0 0.06 0.41 0.14 88 1013.7
20260505090925 58 143 2.0 5.0 0.05 0.40 0.13 89 1013.8
20260505090148 58 96 1.0 4.0 0.06 0.40 0.13 89 1014.0
20260505085907 58 89 2.0 6.0 0.06 0.39 0.12 89 1014.2
20260505085129 58 94 2.0 6.0 0.06 0.39 0.12 89 1014.4
20260505084624 58 82 2.0 4.0 0.06 0.38 0.11 89 1014.4
20260505084117 58 79 2.0 3.0 0.07 0.38 0.11 89 1014.7
20260505083608 58 74 1.0 3.0 0.07 0.37 0.10 88 1014.8
20260505083101 58 96 1.0 4.0 0.07 0.37 0.10 88 1015.0
20260505082556 58 96 1.0 4.0 0.07 0.36 0.09 88 1015.1
20260505082046 59 109 1.0 4.0 0.07 0.36 0.09 88 1015.2
20260505081540 59 98 1.0 3.0 0.07 0.35 0.09 88 1015.2
20260505081034 59 103 0.0 3.0 0.08 0.35 0.08 88 1015.3
20260505080528 59 100 0.0 0.0 0.07 0.34 0.08 87 1015.4
20260505080022 59 100 0.0 2.0 0.07 0.34 0.07 87 1015.7
20260505075516 59 91 0.0 2.0 0.06 0.33 0.06 87 1015.7
20260505075006 59 89 0.0 2.0 0.07 0.33 0.06 88 1015.7
20260505074500 59 89 0.0 2.0 0.06 0.32 0.05 87 1015.8
20260505073954 59 84 0.0 2.0 0.05 0.31 0.04 87 1016.0
20260505073444 59 84 0.0 2.0 0.05 0.30 0.03 88 1015.9
20260505072938 59 74 0.0 1.0 0.06 0.30 0.03 88 1015.9
20260505072701 59 74 0.0 2.0 0.05 0.29 0.02 87 1015.7
20260505072152 59 74 0.0 2.0 0.05 0.28 0.02 88 1015.7
20260505071416 59 74 0.0 0.0 0.05 0.28 0.01 88 1015.7
20260505070910 59 74 0.0 0.0 0.04 0.27 0.00 88 1015.8
20260505070618 59 74 0.0 2.0 0.05 0.27 0.00 88 1015.8
20260505065854 59 74 0.0 2.0 0.06 0.27 0.27 87 1015.5
20260505065348 59 74 0.0 0.0 0.06 0.27 0.27 87 1015.4
20260505064837 59 74 0.0 1.0 0.05 0.26 0.26 88 1015.4
20260505064333 59 74 0.0 1.0 0.05 0.26 0.26 87 1015.4
20260505063826 59 18 0.0 1.0 0.04 0.25 0.25 87 1015.4
20260505063317 59 18 0.0 3.0 0.04 0.25 0.25 88 1015.4
20260505062810 59 18 1.0 4.0 0.04 0.24 0.24 87 1015.4
20260505062305 59 20 1.0 4.0 0.04 0.24 0.24 85 1015.4
20260505061753 60 18 0.0 4.0 0.03 0.23 0.23 84 1015.5
20260505061248 60 77 0.0 0.0 0.03 0.23 0.23 83 1015.5
20260505061008 60 77 0.0 0.0 0.02 0.22 0.23 83 1015.5
20260505060239 60 77 0.0 0.0 0.02 0.22 0.22 83 1015.5
20260505055738 60 77 0.0 0.0 0.01 0.21 0.21 82 1015.4
20260505055237 60 77 0.0 0.0 0.02 0.21 0.21 82 1015.3
20260505054734 60 84 0.0 0.0 0.02 0.21 0.21 82 1015.1
20260505054233 60 84 0.0 2.0 0.02 0.21 0.21 82 1015.1
20260505053735 60 84 1.0 3.0 0.02 0.21 0.21 82 1015.1
20260505053231 60 89 0.0 3.0 0.02 0.21 0.21 82 1015.3
20260505052730 59 131 0.0 3.0 0.01 0.20 0.20 83 1015.4
20260505052228 59 131 0.0 3.0 0.01 0.20 0.20 83 1015.5
20260505051732 60 127 0.0 2.0 0.01 0.20 0.20 82 1015.5
20260505051228 60 86 0.0 2.0 0.01 0.20 0.20 82 1015.7
20260505050955 60 86 0.0 2.0 0.01 0.20 0.20 81 1015.4
20260505050224 60 92 1.0 2.0 0.01 0.20 0.20 81 1015.5
20260505041713 59 224 0.0 2.0 0.00 0.19 0.19 76 1015.3
20260505041216 59 224 0.0 3.0 0.01 0.19 0.19 79 1015.3
20260505040712 59 60 0.0 4.0 0.01 0.19 0.19 78 1015.3
20260505040210 58 21 0.0 4.0 0.01 0.19 0.19 78 1015.3
20260505035708 58 64 0.0 3.0 0.02 0.19 0.19 79 1015.1
20260505035205 58 74 1.0 4.0 0.02 0.19 0.19 79 1015.0
20260505034707 58 74 1.0 5.0 0.03 0.19 0.19 79 1014.8
20260505034205 58 74 2.0 5.0 0.04 0.19 0.19 80 1014.7
20260505033757 58 86 3.0 7.0 0.05 0.19 0.19 79 1014.8
20260505032704 58 103 2.0 7.0 0.06 0.19 0.19 80 1014.8
20260505032206 58 84 3.0 10.0 0.07 0.19 0.19 82 1014.6
20260505031921 58 46 3.0 10.0 0.06 0.18 0.18 82 1014.5
20260505031201 58 22 3.0 7.0 0.06 0.18 0.18 81 1014.7
20260505031147 58 34 3.0 7.0 0.06 0.18 0.18 80 1015.0
20260505030202 59 18 3.0 8.0 0.07 0.18 0.18 80 1015.4
20260505025703 59 19 3.0 8.0 0.06 0.17 0.17 79 1015.5
20260505025428 59 10 2.0 6.0 0.06 0.17 0.17 80 1015.5
20260505024703 60 28 1.0 4.0 0.07 0.16 0.16 78 1015.7
20260505024204 60 31 1.0 2.0 0.07 0.15 0.15 79 1015.5
20260505023703 60 12 1.0 3.0 0.08 0.14 0.14 75 1015.7
20260505023420 60 24 2.0 5.0 0.08 0.13 0.13 77 1015.8
20260505022701 60 15 2.0 5.0 0.08 0.13 0.13 76 1015.7
20260505022418 61 46 1.0 5.0 0.07 0.12 0.12 78 1015.5
20260505021702 61 1 1.0 5.0 0.08 0.12 0.12 76 1015.7
20260505021202 61 68 1.0 4.0 0.08 0.12 0.12 76 1015.4
20260505020703 61 92 0.0 4.0 0.08 0.12 0.12 67 1015.5
20260505020428 60 77 1.0 4.0 0.08 0.11 0.11 77 1015.4
20260505015659 61 150 2.0 8.0 0.08 0.11 0.11 78 1015.5
20260505015419 61 347 4.0 8.0 0.09 0.11 0.11 76 1015.1
20260505014658 61 24 4.0 8.0 0.07 0.09 0.10 75 1015.0
20260505014652 62 345 3.0 7.0 0.07 0.08 0.09 73 1015.1
20260505013658 63 13 2.0 7.0 0.05 0.06 0.07 71 1015.1
20260505013515 63 357 1.0 3.0 0.05 0.05 0.05 70 1015.1
20260505012158 63 343 3.0 7.0 0.05 0.05 0.05 68 1014.5
20260505012136 63 347 4.0 7.0 0.04 0.04 0.04 70 1014.2